Regional Weather Roundup
Issued by NWS

Home | Current Version | Previous Version | Text Only | Print | Product List | Glossary Off
Versions: 1 2 3 4 5 6 7 8 9 10 11 12 13 14 15 16 17 18 19 20 21 22 23 24 25 26 27 28 29 30 31 32 33 34 35 36 37 38 39 40 41 42 43 44 45 46 47 48 49 50

000
ASUS43 KLOT 221010
RWRIL

ILLINOIS REGIONAL WEATHER ROUNDUP
NATIONAL WEATHER SERVICE CHICAGO/ROMEOVILLE IL
500 AM CDT MON SEP 22 2014

NOTE: "FAIR" INDICATES FEW OR NO CLOUDS BELOW 12,000 FEET WITH NO
SIGNIFICANT WEATHER AND/OR OBSTRUCTIONS TO VISIBILITY.

* THESE STATIONS ARE NOT UNDER NWS QUALITY CONTROL. THEY ALSO MAY NOT
  REPORT WEATHER SUCH AS PRECIPITATION OR FOG.

ILZ001-002-007-009-015-016-024-221100-
NORTHWEST ILLINOIS

CITY           SKY/WX    TMP DP  RH WIND       PRES   REMARKS
MOLINE         CLEAR     44  42  93 CALM      30.25R
STERLING*      CLEAR     45  39  81 CALM      30.24R
SAVANNA*       FOG       42  40  94 CALM      30.25R VSB 1/2
$$

ILZ003-004-008-010-011-017-018-221100-
NORTH CENTRAL ILLINOIS

CITY           SKY/WX    TMP DP  RH WIND       PRES   REMARKS
ROCKFORD       CLEAR     44  40  85 CALM      30.25R
FREEPORT*      CLEAR     40  38  95 CALM      30.25S FOG
ROCHELLE*      FOG       38  37  97 CALM      30.23R VSB 3/4
DE KALB*       CLEAR     41  39  92 NW3       30.23R
PERU*          CLEAR     45  42  91 N7        30.23R
$$

ILZ005-006-012>014-019>023-221100-
NORTHEAST ILLINOIS

CITY           SKY/WX    TMP DP  RH WIND       PRES   REMARKS
CHICAGO-OHARE  PTCLDY    47  41  80 NW8       30.20R
CHICAGO-MIDWAY PTCLDY    50  44  80 NW9       30.20R
AURORA         CLEAR     40  36  86 N3        30.22R
LANSING*       PTCLDY    52  43  71 N5        30.19R
JOLIET*        CLEAR     45  42  89 CALM      30.21S
WAUKEGAN       CLEAR     43  39  86 NW5       30.20R
DUPAGE AIRPORT CLEAR     43  39  86 NW5       30.21R
KANKAKEE*      CLEAR     47  44  90 NW3       30.20S
WHEELING       CLEAR     45  40  82 NW5       30.21R
MORRIS*        CLEAR     45  44  98 NW3       30.20S
ROMEOVILLE*    CLEAR     44  43  97 NW6       30.21R
NORTHERLY ISL    N/A     54  45  71 NW8         N/A
$$

LMZ740>746-221100-
SOUTHERN LAKE MICHIGAN

STATION/POSITION SKY/WX   TEMP    WIND        PRES    VSBY  WAVE
                          AIR SEA DIR/SP/G                  HT/PER
                          (F)     (DEG/KT/KT) (MB)    (MI)  (FT/S)
SOUTHERN BUOY              53 61  340/ 12/ 16 1022.1R         6/ 8
WAUKEGAN HARBOR            47     330/  8/ 11   N/A
HARRISON CRIB              54     360/ 12/ 15   N/A
BURNHAM HARBOR             53     280/  5/ 13   N/A
CALUMET HARBOR             54     350/  8/ 12 1020.9R
MICHIGAN CITY              54     360/ 15/ 22   N/A
MICHIGAN CITY 6N           55 64  360/ 14/ 19   N/A           7/ 6
ST. JOSEPH                 51 65   80/ 10/ 14   N/A           7/ 7
$$

ILZ025>027-034>036-040-047-049-050-058-095>099-221100-
WEST-CENTRAL ILLINOIS

CITY           SKY/WX    TMP DP  RH WIND       PRES   REMARKS
QUINCY         CLEAR     48  46  93 N3        30.24R
GALESBURG*     CLEAR     41  41  99 CALM      30.24R
MACOMB*        CLEAR     46  45  97 N5        30.26R
JACKSONVILLE*  CLEAR     49  48  96 NW3       30.23R
PITTSFIELD*    CLEAR     51  47  88 NW3       30.25R
$$

ILZ028>032-037-038-041>044-048-051>054-059>061-221100-
CENTRAL ILLINOIS

CITY           SKY/WX    TMP DP  RH WIND       PRES   REMARKS
PONTIAC        CLEAR     45  45 100 CALM      30.21S
DECATUR        CLEAR     50  47  89 CALM      30.21R
PEORIA         CLEAR     49  45  86 CALM      30.23R
LACON*         CLEAR     44  42  95 CALM      30.23R
LINCOLN*       CLEAR     49  48  93 N3        30.21R
SPRINGFIELD    CLEAR     51  49  92 N8        30.22R
TAYLORVILLE    CLEAR     45  45 100 N5        30.21R
$$

ILZ033-039-045-046-055>057-062-063-221100-
EAST-CENTRAL ILLINOIS

CITY           SKY/WX    TMP DP  RH WIND       PRES   REMARKS
CHAMPAIGN      CLEAR     45  44  97 NW6       30.20R
DANVILLE*      CLEAR     46  45  97 N5        30.17R
RANTOUL*       CLEAR     51  45  80 N8        30.21R
MATTOON        CLEAR     47  45  93 NW5       30.19R
PARIS*         CLEAR     47  47 100 NW3       30.19R
$$

ILZ079-100>102-221100-
SOUTHWEST ILLINOIS

CITY           SKY/WX    TMP DP  RH WIND       PRES   REMARKS
ALTON          CLEAR     52  49  89 CALM      30.21R
BELLEVILLE     CLEAR     54  51  90 N5        30.20R
CAHOKIA*       CLEAR     53  49  86 N3        30.21R
SPARTA*        CLEAR     51  50  95 CALM      30.21R
$$

ILZ064>066-069>071-074>076-080>082-084>086-088>090-092>094-221100-
SOUTH-CENTRAL ILLINOIS

CITY           SKY/WX    TMP DP  RH WIND       PRES   REMARKS
CARBONDALE     CLEAR     51  49  92 NW3       30.19R
CAIRO*         CLEAR     55  50  83 N5        30.18R
EFFINGHAM*     CLEAR     50  47  90 N3        30.19R
MARION         CLEAR     54  52  94 CALM      30.19R
MT. VERNON     CLEAR     52  46  82 CALM      30.19S
CENTRALIA*     CLEAR     51  48  90 CALM      30.19R
SALEM*         CLEAR     52  51  97 CALM      30.19R
METROPOLIS*    CLEAR     51  51 100 CALM      30.17R
$$

ILZ067-068-072-073-078-083-087-091-221100-
SOUTHEAST ILLINOIS

CITY           SKY/WX    TMP DP  RH WIND       PRES   REMARKS
LAWRENCEVILLE  CLEAR     52  50  93 N7        30.18R
FLORA*         CLEAR     50  49  96 N5        30.19R
FAIRFIELD*     CLEAR    N/A N/A N/A N3        30.18R
HARRISBURG*    CLEAR     52  51  97 CALM      30.19R
ROBINSON*      CLEAR     51  51  97 N3        30.19R
CARMI*         CLEAR     51  51  97 CALM      30.18R
$$

ABBREVIATIONS USED IN REMARKS
   TC - TEMPERATURE IN CELSIUS
  WCI - WIND CHILL INDEX
   HX - HEAT INDEX
  VSB - VISIBILITY
$$




USA.gov is the U.S. government's official web portal to all federal, state and local government web resources and services.